FW2196 West Palm Beach FL US current weather conditions

sailwx.info

Wind from 253 at 2 knots

Air temperature 27.8° C
Dewpoint 23.8° C

Last reported at 2020-Jul-10 02:30 UTC.
Time now 2020-Jul-10 03:13 UTC

Location: N 26°48' W 080°19'.
View on Google Maps.

See reports from other nearby stations

  
Tides and Currents Weather Stations Pressure Air Temp Water Temp Dewpoint Dewpoint Depression Visibility Wind Speed Wind Dir Waves Ship Positions
date/time (UTC)wind fromknots sea level pressurealtimeterstation pressurevisibilityair tempwater tempwave heightnotes
2020-Jul-10 02:30 253 2 27.8
2020-Jul-10 02:21 246 2 28.3
2020-Jul-10 02:09 229 1 28.9
2020-Jul-10 02:00 256 3 29.4
2020-Jul-10 01:48 252 2 30.0
2020-Jul-10 01:39 193 2 30.0
2020-Jul-10 01:27 225 0 30.0
2020-Jul-10 01:18 190 30.0
2020-Jul-10 01:09 202 0 30.0
2020-Jul-10 00:57 180 30.0
2020-Jul-10 00:48 202 30.0
2020-Jul-10 00:39 202 30.6
2020-Jul-10 00:27 202 30.6
2020-Jul-10 00:15 202 31.1
2020-Jul-10 00:03 202 31.7
2020-Jul-09 23:51 207 31.7
2020-Jul-09 23:42 247 32.2
2020-Jul-09 23:30 250 0 32.2
2020-Jul-09 23:18 232 0 32.8
2020-Jul-09 23:06 251 0 32.8
2020-Jul-09 22:54 245 1 32.8
2020-Jul-09 22:45 224 1 33.3
2020-Jul-09 22:33 202 1 33.3
2020-Jul-09 22:21 244 1 33.3
2020-Jul-09 22:09 200 1 33.3
2020-Jul-09 21:57 212 0 32.8
2020-Jul-09 21:45 251 0 33.3
2020-Jul-09 21:36 250 1 33.9
2020-Jul-09 21:24 260 0 33.9
2020-Jul-09 21:12 266 1 33.9
2020-Jul-09 21:00 290 0 33.3
2020-Jul-09 20:51 281 2 33.3
2020-Jul-09 20:39 256 2 33.3
2020-Jul-09 20:30 279 2 33.3
2020-Jul-09 20:18 281 2 33.3
2020-Jul-09 20:09 262 5 33.9
2020-Jul-09 20:00 317 1 33.9
2020-Jul-09 19:51 271 1 33.9
2020-Jul-09 19:39 294 0 33.9
2020-Jul-09 19:27 335 1 33.3
2020-Jul-09 19:15 251 2 32.8
2020-Jul-09 19:03 304 1 33.3
2020-Jul-09 18:51 276 2 32.8
2020-Jul-09 18:42 296 2 32.8
2020-Jul-09 18:33 322 0 32.8
2020-Jul-09 18:24 316 1 32.8
2020-Jul-09 18:12 285 1 32.8
2020-Jul-09 18:03 298 1 32.8
2020-Jul-09 17:51 317 1 32.2
2020-Jul-09 17:42 274 3 32.2
2020-Jul-09 17:30 299 1 31.7
2020-Jul-09 17:18 285 2 31.7
2020-Jul-09 17:06 304 2 31.7
2020-Jul-09 16:54 259 1 31.7
2020-Jul-09 16:45 308 2 31.7
2020-Jul-09 16:36 268 2 31.7
2020-Jul-09 16:24 280 3 31.7
2020-Jul-09 16:15 347 1 31.7
2020-Jul-09 16:06 308 0 31.7
2020-Jul-09 15:54 275 1 31.1
2020-Jul-09 15:45 349 2 30.6
2020-Jul-09 15:33 299 1 30.6
2020-Jul-09 15:21 277 0 30.0
2020-Jul-09 15:09 260 2 30.0
2020-Jul-09 15:00 297 1 29.4
2020-Jul-09 14:48 304 0 29.4
2020-Jul-09 14:39 282 2 29.4
2020-Jul-09 14:27 273 2 28.9
2020-Jul-09 14:18 259 1 28.9
2020-Jul-09 14:06 285 2 28.9
2020-Jul-09 13:54 317 1 28.3
2020-Jul-09 13:42 330 1 28.3
2020-Jul-09 13:33 250 2 27.8
2020-Jul-09 13:24 289 0 27.8
2020-Jul-09 13:15 252 0 27.2
2020-Jul-09 13:06 294 27.2
2020-Jul-09 12:54 288 26.7
2020-Jul-09 12:42 247 1 26.7
2020-Jul-09 12:30 202 26.1
2020-Jul-09 12:18 247 25.6
2020-Jul-09 12:06 247 25.0
2020-Jul-09 11:57 248 25.0
2020-Jul-09 11:48 247 24.4
2020-Jul-09 11:36 292 23.9
2020-Jul-09 11:24 292 23.9
2020-Jul-09 11:12 225 23.9
2020-Jul-09 11:03 225 23.9
2020-Jul-09 10:54 225 23.9
2020-Jul-09 10:42 225 23.9
2020-Jul-09 10:33 225 23.9
2020-Jul-09 10:21 225 23.9
2020-Jul-09 10:12 225 23.9
2020-Jul-09 10:00 225 24.4
2020-Jul-09 09:51 225 23.9
2020-Jul-09 09:39 225 23.9
2020-Jul-09 09:30 225 23.9
2020-Jul-09 09:21 225 24.4
2020-Jul-09 09:09 225 24.4
2020-Jul-09 08:57 225 24.4
2020-Jul-09 08:45 225 24.4
2020-Jul-09 08:36 225 24.4
2020-Jul-09 08:24 225 24.4
2020-Jul-09 08:15 225 24.4
2020-Jul-09 08:06 225 24.4
2020-Jul-09 07:54 225 24.4
2020-Jul-09 07:42 225 24.4
2020-Jul-09 07:33 225 24.4
2020-Jul-09 07:21 225 24.4
2020-Jul-09 07:09 225 24.4
2020-Jul-09 06:57 225 24.4
2020-Jul-09 06:45 225 24.4
2020-Jul-09 06:36 225 25.0
2020-Jul-09 06:27 225 25.0
2020-Jul-09 06:15 225 25.0
2020-Jul-09 06:03 225 25.0
2020-Jul-09 05:54 225 25.0
2020-Jul-09 05:42 225 25.0
2020-Jul-09 05:30 195 25.0
2020-Jul-09 05:18 180 25.0
2020-Jul-09 05:06 180 25.6
2020-Jul-09 04:54 360 25.6
2020-Jul-09 04:42 342 26.1
2020-Jul-09 04:33 310 0 26.7
2020-Jul-09 04:21 202 26.7
2020-Jul-09 04:12 202 26.7
2020-Jul-09 04:00 202 26.7
2020-Jul-09 03:51 202 26.7
2020-Jul-09 03:39 202 27.2
2020-Jul-09 03:27 202 27.2
2020-Jul-09 03:15 202 27.2
2020-Jul-09 03:03 202 27.2
2020-Jul-09 02:51 270 27.8
2020-Jul-09 02:42 337 27.8
2020-Jul-09 02:30 337 27.8
2020-Jul-09 02:18 337 27.8
2020-Jul-09 02:06 337 27.8
2020-Jul-09 01:57 337 27.8
2020-Jul-09 01:45 337 27.8
2020-Jul-09 01:33 337 27.8
2020-Jul-09 01:24 337 27.8
2020-Jul-09 01:12 337 28.3
2020-Jul-09 01:00 337 28.3
2020-Jul-09 00:48 337 28.9
2020-Jul-09 00:36 337 28.9
2020-Jul-09 00:27 337 29.4
2020-Jul-09 00:15 337 29.4
2020-Jul-09 00:03 337 30.0
2020-Jul-08 23:51 337 0 30.0
2020-Jul-08 23:42 292 30.0
2020-Jul-08 23:33 281 0 30.0
2020-Jul-08 23:21 293 0 30.6
2020-Jul-08 23:12 291 1 30.6
2020-Jul-08 23:00 271 1 30.6
2020-Jul-08 22:51 265 2 30.6
2020-Jul-08 22:39 272 4 31.1
2020-Jul-08 22:30 269 4 31.7
2020-Jul-08 22:21 255 6 32.2
2020-Jul-08 22:09 253 2 33.3
2020-Jul-08 22:00 294 1 33.3
2020-Jul-08 21:48 236 1 33.3
2020-Jul-08 21:39 262 2 33.3
2020-Jul-08 21:27 286 1 33.9
2020-Jul-08 21:15 305 0 33.9
2020-Jul-08 21:06 295 1 33.9
2020-Jul-08 20:54 297 2 33.3
2020-Jul-08 20:42 268 2 33.9
2020-Jul-08 20:33 229 0 33.9
2020-Jul-08 20:21 250 4 33.3
2020-Jul-08 20:12 254 5 33.3
2020-Jul-08 20:00 256 2 33.9
2020-Jul-08 19:48 302 2 33.9
2020-Jul-08 19:39 277 1 33.9
2020-Jul-08 19:30 312 1 33.3
2020-Jul-08 19:18 290 2 33.3
2020-Jul-08 19:06 348 2 33.9
2020-Jul-08 18:57 325 0 33.9
2020-Jul-08 18:45 282 2 33.9
2020-Jul-08 18:36 328 1 33.3
2020-Jul-08 18:27 359 0 32.8
2020-Jul-08 18:15 230 1 33.3
2020-Jul-08 18:03 311 1 32.8
2020-Jul-08 17:54 284 1 33.3
2020-Jul-08 17:42 267 2 32.8
2020-Jul-08 17:33 251 2 32.8
2020-Jul-08 17:21 275 0 33.3
2020-Jul-08 17:12 313 33.3
2020-Jul-08 17:00 336 2 32.8
2020-Jul-08 16:51 296 0 32.2
2020-Jul-08 16:39 260 1 31.7
2020-Jul-08 16:30 308 1 32.2
2020-Jul-08 16:18 259 2 31.7
2020-Jul-08 16:09 320 1 31.1
2020-Jul-08 15:57 186 0 31.1
2020-Jul-08 15:48 259 1 31.7
2020-Jul-08 15:36 326 31.1
2020-Jul-08 15:27 254 3 31.7
2020-Jul-08 15:15 247 1 31.1
2020-Jul-08 15:03 184 0 31.7
2020-Jul-08 14:54 329 31.1
2020-Jul-08 14:42 237 0 30.6
2020-Jul-08 14:33 247 1 30.0
2020-Jul-08 14:21 204 0 30.6
2020-Jul-08 14:09 247 29.4
2020-Jul-08 13:57 305 0 29.4
2020-Jul-08 13:45 253 0 29.4
2020-Jul-08 13:36 288 0 29.4
2020-Jul-08 13:24 230 1 29.4
2020-Jul-08 13:15 238 28.9
2020-Jul-08 13:03 234 1 28.3
2020-Jul-08 12:54 213 0 28.3
2020-Jul-08 12:30 197 0 26.1
2020-Jul-08 12:18 202 25.6
2020-Jul-08 12:06 202 25.0
2020-Jul-08 11:54 202 23.9
2020-Jul-08 11:45 202 23.9
2020-Jul-08 11:33 202 23.3
2020-Jul-08 11:24 202 23.3
2020-Jul-08 11:15 202 23.3
2020-Jul-08 11:06 022 22.8
2020-Jul-08 10:57 022 22.8
2020-Jul-08 10:45 022 22.8
2020-Jul-08 10:33 022 22.8
2020-Jul-08 10:24 180 23.3
2020-Jul-08 10:12 180 23.3
2020-Jul-08 10:00 180 23.3
2020-Jul-08 09:51 180 23.3
2020-Jul-08 09:42 180 23.3
2020-Jul-08 09:30 180 23.3
2020-Jul-08 09:18 180 23.3
2020-Jul-08 09:06 180 23.3
2020-Jul-08 08:57 180 23.3
2020-Jul-08 08:45 180 23.3
2020-Jul-08 08:33 180 23.3
2020-Jul-08 08:24 180 23.3
2020-Jul-08 08:15 180 23.3
2020-Jul-08 08:03 180 23.9
2020-Jul-08 07:54 180 23.9
2020-Jul-08 07:42 180 23.9
2020-Jul-08 07:30 180 23.9
2020-Jul-08 07:18 180 23.9
2020-Jul-08 07:09 180 23.9
2020-Jul-08 06:57 180 23.9
2020-Jul-08 06:45 180 23.9
2020-Jul-08 06:33 180 23.3
2020-Jul-08 06:24 180 23.3
2020-Jul-08 06:12 180 23.3
2020-Jul-08 06:00 180 23.3
2020-Jul-08 05:51 180 23.3
2020-Jul-08 05:39 180 23.3
2020-Jul-08 05:30 180 23.9
2020-Jul-08 05:18 180 23.3
2020-Jul-08 05:06 180 23.3
2020-Jul-08 04:54 180 23.9
2020-Jul-08 04:42 180 23.9
2020-Jul-08 04:30 180 23.9
2020-Jul-08 04:18 180 23.9
2020-Jul-08 04:09 103 23.9
2020-Jul-08 04:00 067 23.9
2020-Jul-08 03:51 067 23.9
2020-Jul-08 03:39 180 23.9
2020-Jul-08 03:27 180 23.9
2020-Jul-08 03:18 180 23.9
2020-Jul-08 03:06 045 23.9